星链-1128 (STARLINK-1128 )

导读 | 豆包AI

STARLINK-1128是美国星链计划中的一颗低轨互联网通信卫星,于2020年1月7日发射升空,属于SpaceX公司打造的星链星座组网卫星,旨在为全球提供高速低延迟互联网服务,该卫星运行在近地轨道,是星链星座早期组网阶段部署的卫星之一,支撑星座初步通信能力构建。

Basic Information
目录编号:
44931
目录名称:
STARLINK-1128
国际标识:
2020-001T
轨道中心:
EARTH
卫星名称:
星链-1128
卫星全名:
星链-1128 (STARLINK-1128 )
卫星状态:
已陨落 最后检测时间 2024-08-09
发射日期:
2020-01-07 UTC
国别 :
美国 (US)
星等 :
--
Orbit Information
数据来源 国际轨道数据
星历时间: 2024-08-09T09:22:24+0800
轨道信息已过期629天
半长轴: 6563.59km
偏心率: 0.0012852
轨道倾角: 53.017°
近地点辐角 321.221°
升交点赤经 334.261°
平近点角 150.537°
近地点: 177.019km
远地点: 193.891km
周期: 88.201分钟
每日圈数: 16.326408
Detailed Information
固有亮度:
5
最大亮度:
2.5
卫星平台:
Starlink V1.0
覆盖范围:
全球
运营商:
太空探索技术公司
运营商所在国:
美国
制造商(研发单位):
太空探索技术公司
制造商所在国:
美国
使用方式:
暂无
Satellite Introduction
星链(Starlink)计划是由太空探索技术公司(SpaceX)提出的一个巨型低轨卫星互联网星座项目,计划在2019年至2024年间在太空搭建由约1.2万颗卫星组成的“星链”网络,其中1584颗将部署在地球上空550千米处的近地轨道,并从2020年开始工作。该卫星仍在工作。